Regional Weather Roundup
Issued by NWS Northern Indiana

Home | Current Version | Previous Version | Text Only | Print | Product List | Glossary Off
Versions: 1 2 3 4 5 6 7 8 9 10 11 12 13 14 15 16 17 18 19 20 21 22 23 24 25 26 27 28 29 30 31 32 33 34 35 36 37 38 39 40 41 42 43 44 45 46 47 48 49 50

000
ASUS43 KIWX 292210
RWRIWX

KIWX WEATHER ROUNDUP
NATIONAL WEATHER SERVICE NORTHERN INDIANA
600 PM EDT MON MAY 29 2017

NOTE: "FAIR" INDICATES FEW OR NO CLOUDS BELOW 12,000 FEET WITH NO
SIGNIFICANT WEATHER AND/OR OBSTRUCTIONS TO VISIBILITY.

* THESE STATIONS ARE NOT UNDER NWS QUALITY CONTROL. THEY ALSO MAY NOT
  REPORT WEATHER SUCH AS PRECIPITATION OR FOG.

INZ001>027-292300-
NORTHERN INDIANA

CITY           SKY/WX    TMP DP  RH WIND       PRES   REMARKS
GARY*          MOSUNNY   79  32  18 W24G36    29.84R
VALPARAISO     SUNNY     79  46  31 W17G26    29.84S
MICHIGAN CITY* MOSUNNY   73  43  33 W13G23    29.85R
LAPORTE*       PTSUNNY   74  46  36 W16G25    29.85R
KNOX*          PTSUNNY   77  36  22 W17G24    29.83S
SOUTH BEND     MOSUNNY   73  46  38 W15G23    29.84R
ELKHART*       SUNNY     75  46  35 W16G22    29.83S
GOSHEN         MOSUNNY   76  44  32 W22G30    29.83S
MONTICELLO*    CLOUDY    78  44  29 W12G20    29.85S
LOGANSPORT*    CLOUDY    77  46  33 W14       29.86S
ROCHESTER*     CLOUDY    79  41  25 W10G17    29.85S
WARSAW*        CLOUDY    73  48  40 W7        29.84F
ANGOLA*        MOSUNNY   77  48  36 SW12      29.83S
FORT WAYNE     CLOUDY    75  55  49 SW9       29.86S
HUNTINGTON*    MOSUNNY   73  55  52 SW5       29.85F
PERU/GRISSOM   PTSUNNY   78  52  39 W12       29.85S
MARION*        CLOUDY    79  50  36 SW10      29.88S

$$
INZ028>050-292300-
CENTRAL INDIANA

CITY           SKY/WX    TMP DP  RH WIND       PRES   REMARKS
LAFAYETTE      CLOUDY    76  48  37 W13       29.85S
KOKOMO*        CLOUDY    77  52  41 W10       29.87F
MUNCIE*        SUNNY     81  43  26 W16G25    29.87F
INDIANAPOLIS   MOSUNNY   81  50  33 W15       29.87F

$$
MIZ043>046-050>051-056>058-064>065-071>073-077>080-292300-
SOUTHWEST LOWER MICHIGAN

CITY           SKY/WX    TMP DP  RH WIND       PRES   REMARKS
BATTLE CREEK   SUNNY     75  45  34 W20G28    29.82S
BENTON HARBOR  SUNNY     69  43  38 NW9       29.84S
COLDWATER*     PTSUNNY   77  44  30 W17       29.82S
HILLSDALE*     MOSUNNY   72  45  37 W13G20    29.83S
HOLLAND        SUNNY     71  46  40 W14G24    29.83S
GRAND RAPIDS   MOSUNNY   73  45  36 W20G25    29.81R
KALAMAZOO      SUNNY     74  43  32 NW17G23   29.82S
STURGIS*       MOSUNNY   76  47  35 W14G21    29.82S
THREE RIVERS*  PTSUNNY   74  46  35 W13G20    29.82S

$$
OHZ001>008-015>018-024>025-292300-
NORTHWEST OHIO

CITY           SKY/WX    TMP DP  RH WIND       PRES   REMARKS
WAUSEON*       FAIR      73  55  53 SW9       29.85R
DEFIANCE       CLOUDY    73  49  42 SW9       29.85S
FINDLAY        MOSUNNY   78  48  34 W10G24    29.86F
TOLEDO EXPRESS LGT RAIN  68  55  63 W6G29     29.85R
TOLEDO METCALF PTSUNNY   78  48  34 SW14      29.84S
LIMA           SUNNY     78  48  34 SW16      29.87F

$$
AND FOR LAKE MICHIGAN COASTAL AND OPEN LAKE BUOY OBSERVATIONS

STATION/POSITION TEMP    WIND        PRES    VSBY  WAVE
                 AIR SEA DIR/SP/G                  HT/PER
                 (F)     (DEG/KT/KT) (MB)    (MI)  (FT/S)
CALUMET HARBOR    76     230/ 11/ 19 1009.8R
MICHIGAN CITY     65     250/ 12/ 14   N/A
BURNS HARBOR      69     260/ 18     1010.5
SOUTH LAKE BUOY   55 48  270/  4/  6 1010.2R         2/ 4
4 MI NW BRIDGMAN  61 60  320/  8/ 10 1010.7          1/ 2
MICHIGAN CITY     62 56  290/ 12/ 16   N/A           2/ 4

$$
&&




USA.gov is the U.S. government's official web portal to all federal, state and local government web resources and services.